Date String (YYYY-MM-DD hh:mm:ss) UTC,Instrument flags,Ambient pressure (hPa),Sample flow (lpm),Bypass flow (lpm),Sample temperature (°C),Ambient temperature (°C),ASC tube jacket temperature (°C),LED temperature (°C),Box temperature (°C),Sample RH (%),Span deviation,Mass concentration (μg/m³),Mass concentration (μg/m³),Mass concentration (μg/m³)
DateTimeUTC,F1_M11,P_M11,Q1_M11,Q2_M11,T1_M11,T2_M11,T3_M11,T4_M11,T5_M11,U1_M11,ZSPAN_M11,X2_M11,X0_M11,X1_M11
2023-05-16 12:00:00,,0835.0,5.00,0.00,27.8,26.3,00.0,36.1,29.5,28.5,0001.6,0007.72,0010.01,0007.42
2023-05-16 12:01:00,,0835.0,5.01,0.00,27.8,26.3,00.0,36.1,29.5,28.4,0001.7,0007.81,0010.37,0007.51
2023-05-16 12:02:00,,0834.9,5.01,0.00,27.8,26.3,00.0,36.1,29.5,28.4,0001.9,0007.78,0010.48,0007.49
2023-05-16 12:03:00,,0835.0,5.00,0.00,27.8,26.3,00.0,36.1,29.4,28.5,0001.7,0007.77,0010.60,0007.49
2023-05-16 12:04:00,,0834.9,4.99,0.00,27.8,26.3,00.0,36.1,29.5,28.5,0001.3,0007.70,0010.96,0007.41
2023-05-16 12:05:00,,0834.9,4.99,0.00,27.8,26.3,00.0,36.1,29.5,28.6,0001.0,0007.72,0011.00,0007.41
2023-05-16 12:06:00,,0834.9,5.01,0.00,27.8,26.3,00.0,36.1,29.4,28.7,0001.2,0007.86,0011.16,0007.54
2023-05-16 12:07:00,,0835.0,5.00,0.00,27.8,26.3,00.0,36.1,29.4,28.7,0001.1,0008.00,0011.25,0007.69
2023-05-16 12:08:00,,0834.9,5.01,0.00,27.8,26.3,00.0,36.2,29.4,28.8,0000.6,0008.19,0011.41,0007.88
2023-05-16 12:09:00,,0835.0,5.00,0.00,27.8,26.3,00.0,36.2,29.4,28.9,0000.5,0008.38,0011.69,0008.07
2023-05-16 12:10:00,,0835.0,4.99,0.00,27.8,26.2,00.0,36.2,29.4,29.0,0000.2,0008.50,0011.79,0008.19
2023-05-16 12:11:00,,0835.0,5.00,0.00,27.8,26.3,00.0,36.2,29.4,29.0,0000.5,0008.62,0011.98,0008.30
2023-05-16 12:12:00,,0835.0,5.00,0.00,27.8,26.3,00.0,36.2,29.5,29.0,0000.4,0008.76,0012.01,0008.40
2023-05-16 12:13:00,,0835.0,5.01,0.00,27.8,26.3,00.0,36.2,29.5,29.0,0000.5,0008.94,0012.05,0008.56
2023-05-16 12:14:00,,0835.0,5.01,0.00,27.8,26.3,00.0,36.2,29.5,29.0,0000.3,0009.10,0012.11,0008.70
2023-05-16 12:15:00,,0835.0,5.00,0.00,27.9,26.3,00.0,36.2,29.5,28.9,0000.1,0009.26,0011.84,0008.86
2023-05-16 12:16:00,,0834.9,5.00,0.00,27.9,26.3,00.0,36.2,29.5,28.7,-000.0,0009.20,0011.76,0008.82
2023-05-16 12:17:00,,0834.9,5.00,0.00,27.9,26.3,00.0,36.2,29.5,28.5,-000.0,0008.91,0012.03,0008.55
2023-05-16 12:18:00,,0834.9,4.99,0.00,27.9,26.3,00.0,36.2,29.5,28.7,0000.1,0008.75,0012.01,0008.38
2023-05-16 12:19:00,,0835.0,5.00,0.00,27.9,26.3,00.0,36.2,29.5,28.9,0000.5,0008.73,0011.99,0008.33
2023-05-16 12:20:00,,0835.1,4.99,0.00,27.9,26.4,00.0,36.2,29.5,28.9,0000.9,0008.70,0011.88,0008.30
2023-05-16 12:21:00,,0835.1,5.00,0.00,27.9,26.3,00.0,36.2,29.5,28.5,0000.9,0008.62,0011.82,0008.21
2023-05-16 12:22:00,,0835.1,5.00,0.00,27.9,26.3,00.0,36.2,29.5,28.3,0001.1,0008.54,0011.76,0008.12
2023-05-16 12:23:00,,0835.0,5.00,0.00,27.9,26.3,00.0,36.2,29.5,28.6,0001.0,0008.44,0011.55,0008.06
2023-05-16 12:24:00,,0834.9,5.00,0.00,27.9,26.3,00.0,36.2,29.5,28.6,0000.7,0008.27,0011.38,0007.92
2023-05-16 12:25:00,,0835.0,5.00,0.00,27.9,26.3,00.0,36.2,29.5,28.4,0000.5,0008.03,0011.21,0007.68
2023-05-16 12:26:00,,0835.1,5.00,0.00,27.9,26.3,00.0,36.2,29.5,28.7,0000.6,0007.97,0011.16,0007.60
2023-05-16 12:27:00,,0835.1,5.00,0.00,27.9,26.3,00.0,36.2,29.5,29.0,0000.8,0008.08,0011.31,0007.68
2023-05-16 12:28:00,,0835.1,4.99,0.00,27.9,26.3,00.0,36.2,29.5,29.1,0000.6,0008.36,0011.22,0007.96
2023-05-16 12:29:00,,0835.1,5.00,0.00,27.9,26.3,00.0,36.2,29.5,29.1,0000.6,0008.59,0011.10,0008.20
2023-05-16 12:30:00,,0835.1,4.99,0.00,27.9,26.3,00.0,36.2,29.5,29.1,0000.8,0008.67,0011.14,0008.30
2023-05-16 12:31:00,,0835.1,5.00,0.00,27.9,26.3,00.0,36.2,29.5,29.1,0000.6,0008.68,0011.17,0008.31
2023-05-16 12:32:00,,0835.0,5.00,0.00,27.9,26.3,00.0,36.2,29.5,29.0,0000.5,0008.80,0011.36,0008.42
2023-05-16 12:33:00,,0835.0,5.00,0.00,27.9,26.3,00.0,36.2,29.5,28.7,0000.8,0008.85,0011.40,0008.47
2023-05-16 12:34:00,,0835.0,5.00,0.00,27.9,26.4,00.0,36.2,29.5,28.9,0000.6,0008.81,0011.32,0008.45
2023-05-16 12:35:00,,0835.0,5.00,0.00,27.9,26.4,00.0,36.2,29.5,29.0,0000.2,0008.90,0011.54,0008.51
2023-05-16 12:36:00,,0835.0,4.99,0.00,27.9,26.4,00.0,36.2,29.5,28.8,0000.2,0009.02,0011.59,0008.64
2023-05-16 12:37:00,,0835.0,4.99,0.00,27.9,26.4,00.0,36.2,29.5,28.7,0000.1,0009.13,0011.66,0008.77
2023-05-16 12:38:00,,0834.9,5.00,0.00,27.9,26.3,00.0,36.2,29.5,28.5,-000.1,0009.05,0011.56,0008.71
2023-05-16 12:39:00,,0834.9,5.02,0.00,27.9,26.3,00.0,36.2,29.5,27.8,0000.0,0008.76,0011.28,0008.43
2023-05-16 12:40:00,,0834.9,5.01,0.00,27.9,26.3,00.0,36.2,29.5,26.2,-000.1,0008.39,0010.95,0008.07
2023-05-16 12:41:00,,0834.9,5.00,0.00,27.9,26.3,00.0,36.2,29.5,27.5,-000.4,0008.14,0010.74,0007.80
2023-05-16 12:42:00,,0834.9,4.99,0.00,27.9,26.3,00.0,36.2,29.5,27.7,-000.8,0007.87,0010.49,0007.51
2023-05-16 12:43:00,,0835.0,4.99,0.00,27.9,26.3,00.0,36.2,29.5,27.9,-001.0,0007.62,0010.26,0007.25
2023-05-16 12:44:00,,0835.0,5.00,0.00,27.9,26.3,00.0,36.2,29.5,27.6,-001.9,0007.24,0009.90,0006.87
2023-05-16 12:45:00,,0835.0,5.00,0.00,27.9,26.3,00.0,36.2,29.5,29.2,-002.0,0007.14,0009.97,0006.76
2023-05-16 12:46:00,,0835.0,5.00,0.00,27.9,26.4,00.0,36.2,29.6,28.9,-001.4,0006.87,0009.86,0006.52
2023-05-16 12:47:00,,0835.0,5.00,0.00,27.9,26.4,00.0,36.2,29.6,28.9,-001.3,0006.61,0009.56,0006.26
2023-05-16 12:48:00,,0835.1,5.00,0.00,27.9,26.4,00.0,36.3,29.6,29.6,-001.3,0006.50,0009.46,0006.14
2023-05-16 12:49:00,,0835.1,5.00,0.00,27.9,26.4,00.0,36.3,29.6,29.3,-000.9,0006.40,0009.39,0006.00
2023-05-16 12:50:00,,0835.1,4.99,0.00,28.0,26.5,00.0,36.3,29.6,28.6,-001.1,0006.38,0009.37,0005.95
2023-05-16 12:51:00,,0835.1,4.99,0.00,28.0,26.5,00.0,36.3,29.6,27.9,-001.4,0006.42,0009.41,0005.99
2023-05-16 12:52:00,,0835.1,5.00,0.00,28.0,26.5,00.0,36.3,29.6,25.5,-001.2,0006.33,0009.63,0005.92
2023-05-16 12:53:00,,0835.2,5.00,0.00,28.0,26.5,00.0,36.3,29.6,27.3,-001.1,0006.20,0009.64,0005.77
2023-05-16 12:54:00,,0835.2,5.00,0.00,28.0,26.5,00.0,36.3,29.6,26.5,-000.5,0006.03,0009.60,0005.63
2023-05-16 12:55:00,,0835.3,5.00,0.00,28.0,26.5,00.0,36.3,29.7,27.4,0000.0,0005.95,0009.48,0005.55
2023-05-16 12:56:00,,0835.3,5.00,0.00,28.0,26.5,00.0,36.3,29.7,26.9,0000.0,0005.78,0009.20,0005.38
2023-05-16 12:57:00,,0835.3,5.00,0.00,28.0,26.5,00.0,36.3,29.7,27.2,0000.0,0005.63,0008.83,0005.20
2023-05-16 12:58:00,,0835.2,5.00,0.00,28.1,26.5,00.0,36.3,29.7,28.0,0000.0,0005.51,0008.67,0005.10
2023-05-16 12:59:00,,0835.2,5.00,0.00,28.1,26.6,00.0,36.3,29.7,29.4,0001.6,0005.51,0008.72,0005.10
